Indian Springs, Nevada Weather observations

Data are for observation ending at time listed.
 Day   Time    Ave.   Ave.  Ave.  Vector   Max.   Stn.    Total    Solar   Ave.  
  of    of     Air    Rel.  Wind   Wind    Wind   Baro.  Precip.   Rad.    Soil  
Year   Day     Temp.  Hum.  Speed  Dir.    Gust   Pres.                    Temp. 
2014   (PST)    F      %     mph   deg.    mph     mb.     in.     W/m2     F   
------------------------------------------------------------------------------
 234    9:30   80.7    34    6.6    96     14.4   907.8    0.00     775    83.1
 234    9:40   80.9    34    5.7   101     15.3   907.7    0.00     796    83.5
 234    9:50   81.5    33    6.8    95     15.5   907.6    0.00     818    83.8
 234   10:00   81.8    33    6.2    96     13.3   907.7    0.00     836    84.2
 234   10:10   82.7    32    6.5   101     14.3   907.6    0.00     854    84.7
 234   10:20   83.0    31    6.1   103     15.3   907.6    0.00     868    85.1
 234   10:30   83.5    30    7.0    88     14.2   907.5    0.00     884    85.5
 234   10:40   84.8    29    5.5    99     15.3   907.5    0.00     894    85.9
 234   10:50   85.0    29    5.8   100     15.8   907.2    0.00     907    86.3
 234   11:00   84.7    30    7.2    92     12.9   907.1    0.00     916    86.8
 234   11:10   85.1    29    6.0    90     16.7   907.0    0.00     924    87.3
 234   11:20   85.4    29    5.8   102     14.6   907.0    0.00     928    87.7
 234   11:30   85.7    29    5.9   101     16.4   906.8    0.00     933    88.2
 234   11:40   85.5    29    6.9   100     15.6   906.8    0.00     933    88.6
 234   11:50   85.9    29    7.2    97     14.5   906.7    0.00     932    89.1
 234   12:00   86.0    29    7.3    97     17.0   906.6    0.00     932    89.5
 234   12:10   86.7    28    5.6    98     15.6   906.6    0.00     928    89.9
 234   12:20   86.4    28    6.7   103     14.4   906.6    0.00     926    90.4
 234   12:30   86.7    28    6.2   101     16.7   906.4    0.00     922    90.8
 234   12:40   86.8    28    7.0   104     16.7   906.3    0.00     913    91.2
 234   12:50   86.9    28    6.5   104     15.4   906.1    0.00     875    91.7
 234   13:00   86.8    28    7.2   103     20.6   905.9    0.00     887    92.1
 234   13:10   87.4    28    6.7   107     15.3   905.8    0.00     862    92.4
 234   13:20   87.6    27    5.6   107     18.0   905.5    0.00     853    92.9
 234   13:30   88.0    27    5.8   101     16.7   905.4    0.00     661    93.2
 234   13:40   87.4    27    6.1   105     17.0   905.3    0.00     594    93.6
 234   13:50   86.6    28    6.6   106     15.6   905.1    0.00     444    93.9
 234   14:00   87.3    27    7.5    99     18.3   905.0    0.00     807    94.2
 234   14:10   87.9    26    7.8   102     17.2   904.8    0.00     131    94.4
 234   14:20   87.7    26    6.7   108     15.5   904.6    0.00     387    94.7
 234   14:30   87.7    26    8.2   102     21.5   904.5    0.00     607    94.9
 234   14:40   87.5    26    7.2   103     19.1   904.4    0.00     474    95.0
 234   14:50   88.1    25    6.2   104     24.5   904.2    0.00     513    95.1
 234   15:00   88.9    24    5.9   104     20.0   904.0    0.00     573    95.1
 234   15:10   89.9    23    5.3   109     16.0   904.0    0.00     587    95.1
 234   15:20   90.2    23    4.0   117     13.6   904.0    0.00     585    95.1
 234   15:30   90.4    22    4.2   123     14.0   903.9    0.00     561    95.2
 234   15:40   90.3    22    4.3   154      9.7   904.0    0.00     529    95.2
 234   15:50   90.0    23    4.4   139     11.6   903.9    0.00     495    95.3
 234   16:00   89.7    24    4.3   136     12.2   903.6    0.00     462    95.3
 234   16:10   89.7    23    4.9   116     17.4   903.6    0.00     429    95.4
 234   16:20   89.4    23    4.8   118     12.9   903.5    0.00     393    95.5
 234   16:30   89.1    24    5.4   112     21.0   903.4    0.00     359    95.5
 234   16:40   88.9    24    4.4   127     18.9   903.3    0.00     325    95.6
 234   16:50   88.4    25    4.7   148     10.7   903.3    0.00     292    95.6
 234   17:00   88.3    24    3.5   130      9.0   903.1    0.00     220    95.5
 234   17:10   88.7    23    3.2   208      9.5   903.0    0.00      44    95.5
 234   17:20   88.0    24    4.8    92     14.0   903.0    0.00      51    95.4
 234   17:30   87.3    25    5.1    94     12.1   902.9    0.00      42    95.2
 234   17:40   87.1    26    3.0   112     13.6   902.8    0.00      52    95.1
 234   17:50   86.8    25    4.4    87     10.4   902.8    0.00      36    94.9
 234   18:00   86.7    25    3.2   108     10.0   902.6    0.00      34    94.7
 234   18:10   86.4    24    3.3    85      7.2   902.6    0.00      19    94.5
 234   18:20   86.3    23    2.3   149      5.9   902.6    0.00      12    94.3
 234   18:30   86.4    22    1.5    56      3.4   902.5    0.00       6    94.1
 234   18:40   85.4    24    2.8    99      6.6   902.4    0.00       2    93.9
 234   18:50   84.3    25    2.9    97      7.2   902.4    0.00       0    93.6
 234   19:00   83.8    26    1.6   104      4.4   902.4    0.00       0    93.4
 234   19:10   83.6    26    1.3   147      6.4   902.3    0.00       0    93.2
 234   19:20   83.5    26    1.4   179      3.7   902.3    0.00       0    92.9
 234   19:30   84.3    24    1.2   222      3.5   902.3    0.00       0    92.7
 234   19:40   85.0    24    5.2   218     14.0   902.3    0.00       0    92.4
 234   19:50   85.0    24    7.7   208     13.6   902.2    0.00       0    92.2
 234   20:00   84.9    24    6.9   205     14.9   902.3    0.00       0    92.0
 234   20:10   84.8    25    6.7   200     16.3   902.3    0.00       0    91.8
 234   20:20   84.6    25    5.1   183     12.6   902.5    0.00       0    91.5
 234   20:30   84.3    25    7.0   193     13.0   902.5    0.00       0    91.3
 234   20:40   82.8    27    3.5   103     10.0   902.6    0.00       0    91.1
 234   20:50   81.8    28    2.7   150      7.9   902.6    0.00       0    90.9
 234   21:00   81.4    29    4.0    86      9.8   902.5    0.00       0    90.7
 234   21:10   80.7    30    4.5   101     11.1   902.4    0.00       0    90.5
 234   21:20   79.9    32    4.8    98     12.5   902.3    0.00       0    90.3
 234   21:30   79.2    33    2.5   101      9.1   902.1    0.00       0    90.1
 234   21:40   79.4    32    4.5    94     11.2   902.1    0.00       0    89.9
 234   21:50   79.6    32    2.2   102      6.6   902.1    0.00       0    89.7
 234   22:00   78.3    34    4.2    77      7.2   902.0    0.00       0    89.5
 234   22:10   78.1    34    3.0    89      8.2   902.2    0.00       0    89.3
 234   22:20   78.4    33    3.6    94      9.6   902.1    0.00       0    89.1
 234   22:30   78.6    33    4.5    98      9.7   902.1    0.00       0    88.9
 234   22:40   78.5    34    3.4    99      8.7   902.2    0.00       0    88.7
 234   22:50   77.8    35    4.1   106     11.0   902.2    0.00       0    88.6
 234   23:00   78.2    34    5.2    96     10.5   902.2    0.00       0    88.4
 234   23:10   77.5    36    2.5   106      6.2   902.2    0.00       0    88.2
 234   23:20   76.6    37    2.2    98      4.8   902.2    0.00       0    88.0
 234   23:30   75.9    38    2.5    94      4.8   902.2    0.00       0    87.9
 234   23:40   75.6    38    2.7    85      5.9   902.1    0.00       0    87.7
 234   23:50   75.3    39    2.3   104      5.8   902.0    0.00       0    87.5
 235    0:00   75.5    38    2.9    98      7.4   902.1    0.00       0    87.4
 235    0:10   75.5    38    2.9    86      6.9   902.1    0.00       0    87.2
 235    0:20   74.2    41    2.6    67      4.5   902.1    0.00       0    87.0
 235    0:30   73.5    42    2.1    66      3.7   902.1    0.00       0    86.8
 235    0:40   73.1    43    1.7    84      3.1   902.2    0.00       0    86.7
 235    0:50   72.6    43    1.9    69      3.8   902.2    0.00       0    86.5
 235    1:00   72.7    44    1.4   337      3.6   902.3    0.00       0    86.4
 235    1:10   73.3    42    1.3   342      2.7   902.2    0.00       0    86.2
 235    1:20   73.6    41    1.1   336      2.6   902.3    0.00       0    86.0
 235    1:30   74.1    40    0.8   264      3.8   902.4    0.00       0    85.9
 235    1:40   73.5    41    0.8   292      2.1   902.4    0.00       0    85.7
 235    1:50   73.9    40    1.1   243      2.8   902.4    0.00       0    85.6
 235    2:00   73.3    40    1.6   237      3.1   902.5    0.00       0    85.4
 235    2:10   72.1    43    1.5   284      3.0   902.5    0.00       0    85.3
 235    2:20   71.7    44    2.4   252      5.6   902.6    0.00       0    85.1
 235    2:30   71.7    44    2.6   246      4.7   902.5    0.00       0    85.0
 235    2:40   71.8    44    2.1   247      4.7   902.5    0.00       0    84.8
 235    2:50   71.9    44    2.5   263      4.9   902.7    0.00       0    84.7
 235    3:00   71.3    45    2.2   264      4.6   902.6    0.00       0    84.5
 235    3:10   71.3    44    2.0   248      3.5   902.7    0.00       0    84.4
 235    3:20   71.3    44    2.0   247      3.6   902.9    0.00       0    84.2
 235    3:30   71.0    45    2.0   250      3.8   902.7    0.00       0    84.1
 235    3:40   70.6    45    1.5   238      3.7   902.9    0.00       0    83.9
 235    3:50   70.4    46    2.0   249      4.2   903.0    0.00       0    83.8
 235    4:00   70.8    45    2.7   264      5.3   903.0    0.00       0    83.7
 235    4:10   71.0    44    2.4   271      6.1   903.2    0.00       0    83.5
 235    4:20   70.8    44    2.1   264      4.5   903.1    0.00       0    83.4
 235    4:30   70.6    44    2.3   272      4.2   903.3    0.00       0    83.2
 235    4:40   71.0    44    1.5   282      3.1   903.5    0.00       0    83.1
 235    4:50   70.4    45    1.9   254      3.9   903.5    0.00       0    83.0
 235    5:00   70.9    44    1.7   255      3.3   903.5    0.00       0    82.8
 235    5:10   70.6    45    2.4   245      4.0   903.6    0.00       1    82.7
 235    5:20   69.6    46    1.6   241      3.7   903.7    0.00       7    82.6
 235    5:30   68.9    47    1.9   232      3.8   903.8    0.00      17    82.5
 235    5:40   68.9    47    2.3   236      4.3   904.0    0.00      41    82.3
 235    5:50   70.5    45    2.0   245      4.2   904.0    0.00      72    82.2
 235    6:00   71.9    42    1.9   262      4.3   904.2    0.00     109    82.1
 235    6:10   73.8    38    3.2   244      5.1   904.3    0.00     141    81.9
 235    6:20   74.6    37    2.9   245      6.0   904.5    0.00     174    81.8
 235    6:30   75.4    36    2.7   260      5.3   904.7    0.00     207    81.7
 235    6:40   75.7    35    2.8   268      7.1   904.9    0.00     242    81.6
 235    6:50   76.0    35    3.2   270      8.3   905.2    0.00     277    81.5
 235    7:00   76.5    34    3.0   255      5.3   905.4    0.00     312    81.4
 235    7:10   76.8    34    3.2   252      6.5   905.7    0.00     348    81.4
 235    7:20   76.7    34    3.5   270      6.4   905.8    0.00     382    81.4
 235    7:30   77.2    34    3.1   271      6.4   905.9    0.00     417    81.4
 235    7:40   77.6    33    3.0   278      6.1   906.1    0.00     450    81.5
 235    7:50   78.0    33    3.3   294      6.1   906.2    0.00     481    81.6
 235    8:00   78.3    33    2.6   317      5.6   906.5    0.00     517    81.7
 235    8:10   79.2    32    1.9     5      3.8   906.7    0.00     555    82.0
 235    8:20   80.0    31    2.0   301      5.0   906.8    0.00     580    82.1
 235    8:30   80.1    31    2.2   276      5.1   907.0    0.00     610    82.3
 235    8:40   80.3    30    1.9   304      5.0   907.2    0.00     642    82.6
 235    8:50   81.3    30    1.9   329      4.6   907.3    0.00     671    82.8
 235    9:00   82.0    29    2.4    31      4.8   907.5    0.00     703    83.2
 235    9:10   82.4    29    1.8   348      5.0   907.6    0.00     720    83.5
 235    9:20   82.2    29    1.9   322      4.8   907.7    0.00     742    83.8

Return to Indian Springs, Nevada graphs page.


Western Regional Climate Center,wrcc@dri.edu